User: anonymous
Location: Utrecht
(52.0830°N, 5.1330°E)
Time: 14:51:03
(UTC+02:00)
Language:

Cosmos 1092 Rocket - Orbit

View from above orbital plane
View from above orbital plane
View from above satellite
View from above satellite

Ground track
Ground track

The orbit data is extracted from the following two-line orbital elements,

1 11327U 79030B   14237.91993238  .00000051  00000-0  36060-4 0  8213
2 11327 082.9533 337.8630 0028346 170.2233 327.1953 13.76939779777908
Epoch (UTC): 25 August 2014 22:04:42
Eccentricity: 0.0028346
inclination: 82.9533°
perigee height: 954 km
apogee height: 995 km
right ascension of ascending node: 337.8630°
argument of perigee: 170.2233°
revolutions per day: 13.76939779
mean anomaly at epoch: 327.1953°
orbit number at epoch: 77790

The dashed part of the orbit path shows where the satellite is in the earth's shadow,  

DLR